Regional Weather Roundup
Issued by NWS

Home | Current Version | Previous Version | Graphics & Text | Print | Product List | Glossary On
Versions: 1 2 3 4 5 6 7 8 9 10 11 12 13 14 15 16 17 18 19 20 21 22 23 24 25 26 27 28
000
ASUS45 KCYS 291410
RWRWY

WYOMING REGIONAL WEATHER ROUNDUP
NATIONAL WEATHER SERVICE CHEYENNE WY
800 AM MDT WED OCT 29 2014

NOTE:  "FAIR" INDICATES FEW OR NO CLOUDS BELOW 12,000 FEET
WITH NO SIGNIFICANT WEATHER AND/OR OBSTRUCTIONS TO VISIBILITY.

WYZ001-291500-
YELLOWSTONE NATIONAL PARK

CITY           SKY/WX    TMP DP  RH WIND       PRES   REMARKS
LK YELLOWSTONE   N/A     26  23  88 CALM      30.26
W YELLOWSTONE  NOT AVBL

$$
WYZ002>013-054>058-071-098>099-291500-
NORTHERN WYOMING

CITY           SKY/WX    TMP DP  RH WIND       PRES   REMARKS
JACKSON        CLOUDY    27  25  93 VRB6      30.25S WCI  20
CODY           PTCLDY    45  19  36 NW8G17    30.08
GREYBULL       MOCLDY    28  17  63 SE3       30.09F
WORLAND        PTCLDY    23  14  68 S6        30.09S WCI  16
SHERIDAN       MIX PCPN  35  25  66 SW7       29.99S WCI  29
BUFFALO        MOCLDY    47  20  34 W10       30.02R
GILLETTE       PTCLDY    39  16  39 SE9       30.01S WCI  33
HULETT         FAIR      34  19  55 W5        30.03S WCI  30
NEWCASTLE      FAIR      23  18  80 CALM      30.08S

$$
WYZ014>020-022>026-101>103-291500-
CENTRAL WYOMING

CITY           SKY/WX    TMP DP  RH WIND       PRES   REMARKS
BIG PINEY      PTCLDY    16  11  80 E5        30.30R WCI   9
PINEDALE       PTSUNNY   19  18  93 W3        30.29S
DUBOIS         CLOUDY    32  19  59 NW15      30.18S WCI  22
LANDER         PTCLDY    29  15  56 N8        30.13R WCI  21
RIVERTON       PTCLDY    29  12  49 SW9       30.14R WCI  20
CASPER         CLEAR     42  13  30 SW9G23    30.12R
DOUGLAS        CLEAR     20  14  77 N3        30.10S

$$
WYZ021-027>030-104>119-291500-
SOUTHERN WYOMING

CITY           SKY/WX    TMP DP  RH WIND       PRES   REMARKS
EVANSTON       PTCLDY    32   8  36 SW6       30.31R WCI  26
FORT BRIDGER   FAIR      35  11  38 W10       30.32S WCI  27
ROCK SPRINGS   CLEAR     34   8  33 SW18      30.28S WCI  23
RAWLINS        PTCLDY    34   8  33 SW10      30.25R WCI  26
SARATOGA       FAIR      30  12  47 SE10      30.28R WCI  21
LARAMIE        PTCLDY    37  10  32 SW14      30.22S WCI  28
CHEYENNE       PTCLDY    45  11  25 SW16      30.16S
TORRINGTON     PTCLDY    23  17  78 CALM      30.10S
PINE BLUFFS    FAIR      28  21  74 SW5       30.16S WCI  23

$$



USA.gov is the U.S. government's official web portal to all federal, state and local government web resources and services.